Location: Cires
(49.2724°N, 2.3584°E)
Time: 15:05:20
(UTC+00:00)

Daily predictions for brighter satellites

Satellite Brightness Start Highest point End
(mag) Time Altitude Azimuth Time Altitude Azimuth Time Altitude Azimuth
ATLAS 2AS CENTAUR R/B 3.1 20:29:51 10° NW 20:36:41 60° NE 20:43:15 10° ESE
Meteor 1-22 Rocket 4.4 20:32:09 10° N 20:37:48 67° ENE 20:43:37 10° SSE
BREEZE-M DEB (TANK) 3.5 20:36:30 10° SW 20:39:58 51° SE 20:51:01 10° ENE
COSMOS 2406 3.9 20:35:51 10° SW 20:41:33 63° WNW 20:47:17 10° NNE
Meteor 2-10 Rocket 3.9 20:36:19 10° N 20:41:50 55° ENE 20:47:05 10° SSE
Cosmos 1674 4.0 20:39:49 10° SW 20:43:04 38° WNW 20:46:21 10° N
ARGOS Delta rocket 3.8 20:39:34 10° S 20:44:00 76° W 20:48:25 10° NNW
SL-4 R/B 2.4 20:44:55 10° W 20:48:40 61° N 20:52:42 10° ENE
Cosmos 1733 Rocket 3.8 20:44:32 10° N 20:48:41 38° ENE 20:52:49 10° SE
Cosmos 2278 4.1 20:43:50 10° NNW 20:49:29 63° WSW 20:55:06 10° SSE
Cosmos 1300 3.0 20:50:27 10° N 20:53:54 45° ENE 20:57:19 10° SSE
S3M 4.1 20:47:46 10° N 20:54:13 85° E 21:00:31 10° S
Ariane Rocket 3.1 20:49:29 10° SSE 20:54:32 69° ENE 20:59:37 10° N
Timation 1 Rocket 4.4 20:50:29 10° SSW 20:56:18 60° ESE 21:02:10 10° NE
SL-27 R/B 3.1 20:54:35 10° SSE 20:56:53 23° ESE 20:59:11 10° NE
Okean-O 4.0 20:53:36 10° SSW 20:57:39 35° W 21:01:43 10° NNW
Cosmos 1441 Rocket 4.2 20:55:21 10° NNW 20:58:47 42° W 21:02:13 10° SSW
Cosmos 1400 Rocket 2.7 20:56:48 10° S 21:00:40 74° E 21:04:30 10° NNE
Cosmos 2219 Rocket 3.0 20:55:56 10° NNW 21:01:18 42° NE 21:06:41 10° ESE
Meteor 1-13 Rocket 4.4 20:55:33 10° SSW 21:01:20 81° WNW 21:07:02 10° N
COSMOS 2428 4.3 20:58:00 10° NNW 21:02:42 26° NE 21:07:23 10° E
BREEZE-M DEB (TANK) 1.8 21:01:56 10° W 21:03:57 57° SSW 21:06:43 10° ESE
Cosmos 1356 Rocket 3.8 21:00:07 10° SSE 21:04:07 45° E 21:08:09 10° NNE
Cosmos 1908 4.4 21:00:55 10° NNW 21:04:15 36° W 21:07:34 10° SSW
Cosmos 2266 Rocket 4.1 20:59:27 10° S 21:05:48 87° E 21:12:16 10° N
USA 245 3.7 21:02:45 10° S 21:06:18 67° W 21:10:50 10° NNW
ATLAS CENTAUR R/B 1.3 21:03:22 10° SSW 21:06:40 41° ESE 21:10:04 10° NE
Cosmos 1850 Rocket 4.1 21:03:36 10° S 21:08:44 59° ESE 21:13:51 10° NNE
Cosmos 1655 Rocket 4.1 21:05:04 10° S 21:11:25 69° E 21:17:47 10° NNE
Cosmos 1869 Rocket 4.4 21:08:31 10° NNW 21:12:49 50° W 21:17:07 10° SSW
Meteor 1-4 Rocket 3.5 21:13:07 14° SE 21:14:49 22° E 21:17:14 10° NE
Cosmos 2228 Rocket 3.2 21:10:37 10° S 21:15:08 65° E 21:19:40 10° NNE
MOS 1 Rocket 3.7 21:10:44 10° SSE 21:16:09 83° W 21:21:27 10° NNW
Okean O Rocket 4.3 21:14:48 10° WSW 21:17:04 14° W 21:19:19 10° WNW
Cosmos 1953 3.6 21:14:50 10° NNE 21:18:07 26° ENE 21:20:51 13° SE
Cosmos 1315 Rocket 4.1 21:17:28 13° SE 21:20:05 25° E 21:23:24 10° NE
Cosmos 968 Rocket 3.6 21:17:13 10° S 21:22:12 54° ESE 21:27:16 10° NNE
SPOT 3 Rocket 3.7 21:18:20 10° S 21:23:29 76° WSW 21:28:41 10° NNW
SeaSat 1 3.1 21:19:08 10° S 21:23:52 48° WSW 21:28:38 10° NW
Cosmos 2360 Rocket 2.3 21:20:51 10° NNW 21:26:33 80° WSW 21:31:30 14° SSE
Cosmos 1741 Rocket 4.0 21:23:56 10° SSW 21:29:12 81° ESE 21:34:33 10° NNE
Cosmos 1242 Rocket 4.1 21:29:31 12° ESE 21:30:06 12° E 21:31:19 10° ENE
BlueWalker 3 3.5 21:31:50 16° SE 21:31:50 16° SE 21:34:01 10° E
Cosmos 1814 Rocket 4.1 21:27:34 10° NNW 21:32:54 78° ENE 21:37:16 16° SSE
MetOp-A 4.1 21:28:25 14° SSE 21:32:56 73° ENE 21:38:11 10° N
Landsat 4 4.2 21:30:19 11° S 21:33:29 47° W 21:36:49 10° NNW
COSMOS 2455 4.5 21:35:30 13° SE 21:37:50 16° ESE 21:41:16 10° ENE
SL-16 R/B 3.4 21:33:09 10° NW 21:38:14 35° WSW 21:43:17 10° S
Landsat 5 3.4 21:36:27 10° NNE 21:40:27 68° ESE 21:44:11 12° S
USA 234 3.2 21:34:24 10° ENE 21:40:59 83° SE 21:47:33 10° SW
Cosmos 2333 Rocket 2.4 21:36:44 10° NNW 21:42:28 68° WSW 21:47:09 16° SSE
SL-14 R/B 3.8 21:40:11 10° SSW 21:43:54 56° WNW 21:47:40 10° N
Cosmos 1703 Rocket 4.5 21:43:34 18° SE 21:46:18 34° E 21:50:20 10° NNE
Cosmos 1862 Rocket 3.6 21:42:45 10° S 21:47:09 83° W 21:51:37 10° N
Cosmos 1346 Rocket 3.5 21:44:14 10° NNW 21:47:58 48° W 21:51:09 13° SSW
Okean 3 3.4 21:46:07 13° S 21:49:50 87° E 21:54:02 10° N
DNEPR-1 R/B 4.4 21:43:16 10° NW 21:50:09 87° SW 21:54:25 18° SE
Cosmos 1455 2.3 21:49:38 10° N 21:53:05 52° ENE 21:55:03 23° SSE
Cosmos 1408 4.4 21:55:12 12° E 21:55:43 12° E 21:56:56 10° ENE
Cosmos 1833 4.1 21:51:16 10° SSW 21:56:53 84° ESE 22:02:33 10° NNE
EXPRESS MD2 2.0 21:55:19 10° W 21:57:45 75° N 21:59:45 11° E
CZ-4C R/B 3.5 21:58:28 14° ESE 21:59:18 15° ESE 22:02:04 10° ENE
RESURS DK-1 4.3 21:56:35 10° WNW 21:59:38 21° WSW 22:02:40 10° SSW
H-2A R/B 3.8 21:58:41 15° ESE 22:01:31 30° ENE 22:05:15 10° N
Cosmos 2237 Rocket 3.8 21:56:44 10° NNW 22:01:36 28° NE 22:06:26 10° ESE
Cosmos 1932 4.4 21:57:10 10° SSW 22:03:27 69° SE 22:09:42 10° NE
SJ 16-02 1.3 22:00:29 10° SSW 22:04:47 84° WNW 22:09:09 10° NNE
Cosmos 2322 3.9 21:59:46 10° NNW 22:05:28 69° ENE 22:09:35 19° SE
Terra 3.7 22:01:45 10° SSW 22:05:33 24° W 22:09:23 10° NW
CZ-2C R/B 4.0 22:02:41 10° NNE 22:06:57 46° E 22:09:29 22° SSE
Aureole 3 4.1 22:07:01 12° SSW 22:10:44 60° WNW 22:15:43 10° N
Cosmos 2322 Rocket 3.7 22:15:47 10° NW 22:20:25 26° WSW 22:24:47 11° SSW
ARIANE 5 R/B 2.5 22:23:17 25° SSE 22:25:45 86° ENE 22:30:07 10° NNW
NOSS 5 (C) 4.2 22:23:26 10° NW 22:26:38 80° NE 22:27:59 31° SE
ATLAS 2AS CENTAUR R/B 3.4 22:21:09 10° NW 22:27:20 39° WSW 22:31:35 18° S
SL-4 R/B 2.0 22:23:43 10° WNW 22:27:40 79° NNE 22:31:54 10° ESE
Cosmos 2297 Rocket 3.5 22:27:17 19° SE 22:29:25 24° ESE 22:33:48 10° NE
Okean 1-7 3.6 22:30:05 15° SSW 22:33:31 54° WNW 22:37:46 10° N
USA 281 3.3 22:34:22 22° SSE 22:38:53 76° WSW 22:45:31 10° NNW
Cosmos 1745 Rocket 4.0 22:34:59 21° S 22:39:21 74° E 22:45:44 10° NNE
Cosmos 1908 Rocket 4.2 22:36:51 10° NNW 22:41:02 48° W 22:43:32 22° SSW
GP-B 3.2 22:36:51 10° N 22:41:15 73° W 22:43:51 24° SSW
Cosmos 1782 Rocket 3.5 22:39:38 10° N 22:44:00 84° W 22:46:09 29° S
Spot 4 4.0 22:41:21 26° SSE 22:44:03 68° ENE 22:48:51 10° N
ATLAS CENTAUR R/B 3.3 22:41:25 10° W 22:44:26 26° NW 22:47:33 10° NNE
Cosmos 2219 Rocket 3.0 22:40:00 10° NW 22:45:14 39° WSW 22:48:35 20° SSW
Nadezhda 1 Rocket 4.0 22:40:09 10° NNW 22:46:28 80° W 22:50:31 23° S
Okean 2 4.5 22:43:49 14° SW 22:46:56 38° WNW 22:50:44 10° N
COSMOS 2428 2.7 22:41:51 10° NNW 22:47:33 75° WSW 22:50:54 26° SSE
Meteor 2-5 Rocket 4.4 22:46:15 23° SSE 22:49:26 42° E 22:54:53 10° NNE
BREEZE-M DEB (TANK) 3.0 22:48:00 10° WNW 22:51:50 41° N 22:53:52 10° ENE
Cosmos 1953 3.8 22:50:38 10° NNW 22:53:54 27° W 22:55:58 17° SW
Cosmos 2098 Rocket 4.5 22:48:13 10° N 22:54:43 55° ENE 22:58:50 22° SE
Cosmos 1315 Rocket 4.4 22:52:43 11° SW 22:56:07 31° WNW 22:59:43 10° N
H-2A R/B 3.8 22:54:52 10° NE 22:57:51 18° E 22:59:07 16° ESE
PSLV R/B 4.0 22:55:34 10° N 22:59:33 70° WNW 23:01:43 26° SSW
Cosmos 1300 Rocket 3.6 22:56:53 10° NNW 23:01:09 67° W 23:03:09 30° S
Cosmos 1242 Rocket 3.6 23:00:40 20° WSW 23:01:50 28° WNW 23:04:17 10° N
Cosmos 304 Rocket 4.1 23:03:17 30° SSE 23:05:15 49° ESE 23:09:50 10° NNE
Cosmos 158 Rocket 4.2 23:02:22 10° NNW 23:07:36 58° WSW 23:10:13 28° S
Cosmos 2151 Rocket 4.4 23:05:06 10° N 23:09:17 40° ENE 23:11:26 24° SE
BlueWalker 3 1.7 23:06:00 13° SW 23:09:20 73° SSE 23:13:04 10° ENE
Cosmos 2360 Rocket 4.4 23:06:50 10° WNW 23:09:36 14° W 23:12:22 10° SW
Cosmos 405 Rocket 3.2 23:07:01 10° N 23:10:42 49° ENE 23:12:07 31° SE
Okean 2 Rocket 3.9 23:11:34 10° N 23:15:51 43° ENE 23:18:04 25° SE
ALOS 2 2.5 23:14:27 33° S 23:16:24 84° WSW 23:20:49 10° NNW
Cosmos 546 4.5 23:15:51 10° WNW 23:19:42 75° SSW 23:22:00 23° ESE
Cosmos 1674 Rocket 4.4 23:20:04 27° SE 23:21:42 37° E 23:25:43 10° NNE
Cosmos 1378 Rocket 4.1 23:20:47 30° SE 23:22:26 44° E 23:26:37 10° NNE
COSMOS 2455 2.8 23:18:35 21° SSW 23:22:49 80° ESE 23:28:53 10° NE
USA 234 4.1 23:17:30 10° ENE 23:23:49 53° NNW 23:30:07 10° W
NOSS 0 Rocket 4.1 23:20:12 10° NW 23:26:19 59° WSW 23:29:40 27° S
CENTAUR R/B 3.4 23:24:42 22° SE 23:26:43 27° ESE 23:32:13 10° NE
Cosmos 1408 3.3 23:27:13 28° WSW 23:28:06 34° WNW 23:30:53 10° N
Cosmos 773 Rocket 4.0 23:24:25 10° NNW 23:29:33 69° WSW 23:32:01 31° S
Cosmos 1703 3.4 23:34:51 35° SW 23:36:12 60° WNW 23:39:52 10° N
H-2A R/B 3.7 23:34:40 24° SW 23:36:23 33° W 23:40:15 10° NNW
Cosmos 2221 Rocket 4.1 23:34:53 31° SSE 23:36:38 48° E 23:40:55 10° NNE
Cosmos 1892 3.0 23:37:30 37° SE 23:38:18 45° E 23:41:41 10° NNE
Cosmos 1709 Rocket 4.3 23:34:37 21° SSW 23:38:55 63° WNW 23:45:15 10° N
SL-16 R/B 3.2 23:33:55 10° NNW 23:39:22 43° NE 23:44:44 10° SE
Cosmos 1174 4.0 23:34:33 10° NW 23:39:40 87° NE 23:41:41 31° SE
Sich 1 Rocket 3.6 23:37:05 10° N 23:41:30 76° E 23:43:22 34° SSE
Cosmos 2242 Rocket 4.4 23:39:46 22° SW 23:42:20 45° WNW 23:46:45 10° N
SJ 16-02 4.1 23:41:44 10° WNW 23:43:52 13° NW 23:46:00 10° NNW
Cosmos 2237 Rocket 2.3 23:40:30 10° NNW 23:46:08 65° WSW 23:48:59 29° S
Cosmos 1777 Rocket 4.0 23:43:34 29° SSW 23:46:20 81° ESE 23:51:39 10° NNE
CZ-4C R/B 1.9 23:43:30 23° SW 23:46:29 88° NW 23:52:19 10° NE
Cosmos 1503 Rocket 4.0 23:43:28 27° SSW 23:46:30 86° WNW 23:51:50 10° NNE
BREEZE-M DEB (TANK) 2.8 23:38:53 10° W 23:48:27 84° SSW 23:51:30 10° ESE
Cosmos 2227 Rocket 2.5 23:50:16 29° S 23:52:57 54° ESE 23:58:28 10° NE
GEOS 3 Rocket 4.2 23:50:06 10° NE 23:54:57 40° ESE 23:56:49 29° SSE
